Time,TemperatureF,DewpointF,PressureIn,WindDirection,WindDirectionDegrees,WindSpeedMPH,WindSpeedGustMPH,Humidity,HourlyPrecipIn,Conditions,Clouds,dailyrainin,SolarRadiationWatts/m^2,SoftwareType,DateUTC
2013-07-10 00:04:00,83.6,61.2,29.84,North,355,5.0,5.0,47,0.00,,,0.00,0,Wunderground v.1.15,2013-07-09 21:04:00,
2013-07-10 00:14:00,83.4,61.1,29.84,NNW,340,5.0,8.0,47,0.00,,,0.00,0,Wunderground v.1.15,2013-07-09 21:14:00,
2013-07-10 00:24:00,83.3,61.0,29.84,NNW,348,5.0,5.0,47,0.00,,,0.00,0,Wunderground v.1.15,2013-07-09 21:24:00,
2013-07-10 00:34:00,83.2,60.9,29.84,North,360,4.0,6.0,47,0.00,,,0.00,0,Wunderground v.1.15,2013-07-09 21:34:00,
2013-07-10 00:44:00,83.1,60.8,29.83,North,5,3.0,5.0,47,0.00,,,0.00,0,Wunderground v.1.15,2013-07-09 21:44:00,
2013-07-10 00:49:00,83.1,60.8,29.83,North,355,4.0,5.0,47,0.00,,,0.00,0,Wunderground v.1.15,2013-07-09 21:49:00,
2013-07-10 01:04:00,83.0,61.3,29.83,NNE,15,4.0,4.0,48,0.00,,,0.00,0,Wunderground v.1.15,2013-07-09 22:04:00,
2013-07-10 01:10:00,82.9,61.2,29.83,North,11,4.0,4.0,48,0.00,,,0.00,0,Wunderground v.1.15,2013-07-09 22:10:00,
2013-07-10 01:20:00,82.8,61.1,29.82,NNE,16,4.0,5.0,48,0.00,,,0.00,0,Wunderground v.1.15,2013-07-09 22:20:00,
2013-07-10 01:34:00,82.7,61.0,29.82,NNE,23,4.0,4.0,48,0.00,,,0.00,0,Wunderground v.1.15,2013-07-09 22:34:00,
2013-07-10 01:40:00,82.7,61.6,29.82,North,5,3.0,4.0,49,0.00,,,0.00,0,Wunderground v.1.15,2013-07-09 22:40:00,
2013-07-10 01:49:00,82.6,61.5,29.82,NNE,16,5.0,8.0,49,0.00,,,0.00,0,Wunderground v.1.15,2013-07-09 22:49:00,
2013-07-10 02:04:00,82.5,62.0,29.82,North,360,4.0,5.0,50,0.00,,,0.00,0,Wunderground v.1.15,2013-07-09 23:04:00,
2013-07-10 02:14:00,82.3,61.8,29.82,ENE,57,3.0,7.0,50,0.00,,,0.00,0,Wunderground v.1.15,2013-07-09 23:14:00,
2013-07-10 02:24:00,81.8,62.5,29.82,North,360,5.0,5.0,52,0.00,,,0.00,0,Wunderground v.1.15,2013-07-09 23:24:00,
2013-07-10 02:34:00,81.5,62.7,29.82,ENE,65,4.0,4.0,53,0.00,,,0.00,0,Wunderground v.1.15,2013-07-09 23:34:00,
2013-07-10 02:44:00,81.2,63.0,29.82,ENE,59,4.0,4.0,54,0.00,,,0.00,0,Wunderground v.1.15,2013-07-09 23:44:00,
2013-07-10 02:54:00,80.9,63.2,29.82,NE,38,4.0,7.0,55,0.00,,,0.00,0,Wunderground v.1.15,2013-07-09 23:54:00,
2013-07-10 03:04:00,81.0,63.3,29.82,NNE,27,4.0,4.0,55,0.00,,,0.00,0,Wunderground v.1.15,2013-07-10 00:04:00,
2013-07-10 03:14:00,80.7,63.5,29.82,NE,36,5.0,5.0,56,0.00,,,0.00,0,Wunderground v.1.15,2013-07-10 00:14:00,
2013-07-10 03:24:00,80.6,63.5,29.82,NNE,18,7.0,7.0,56,0.00,,,0.00,0,Wunderground v.1.15,2013-07-10 00:24:00,
2013-07-10 03:34:00,80.4,63.3,29.82,East,81,4.0,8.0,56,0.00,,,0.00,0,Wunderground v.1.15,2013-07-10 00:34:00,
2013-07-10 03:44:00,80.1,63.0,29.82,NNE,27,6.0,7.0,56,0.00,,,0.00,0,Wunderground v.1.15,2013-07-10 00:44:00,
2013-07-10 03:54:00,79.8,62.7,29.81,NE,40,7.0,7.0,56,0.00,,,0.00,0,Wunderground v.1.15,2013-07-10 00:54:00,
2013-07-10 04:04:00,79.8,62.2,29.81,NE,49,7.0,13.0,55,0.00,,,0.00,0,Wunderground v.1.15,2013-07-10 01:04:00,
2013-07-10 04:15:00,79.7,62.1,29.81,ENE,57,7.0,7.0,55,0.00,,,0.00,0,Wunderground v.1.15,2013-07-10 01:15:00,
2013-07-10 04:24:00,79.7,62.1,29.81,NNE,19,7.0,11.0,55,0.00,,,0.00,0,Wunderground v.1.15,2013-07-10 01:24:00,
2013-07-10 04:34:00,79.6,62.0,29.81,NE,42,6.0,6.0,55,0.00,,,0.00,0,Wunderground v.1.15,2013-07-10 01:34:00,
2013-07-10 04:44:00,79.5,61.9,29.80,North,11,4.0,7.0,55,0.00,,,0.00,0,Wunderground v.1.15,2013-07-10 01:44:00,
2013-07-10 04:54:00,79.5,61.9,29.80,NNE,32,4.0,4.0,55,0.00,,,0.00,0,Wunderground v.1.15,2013-07-10 01:54:00,
2013-07-10 05:04:00,79.5,61.9,29.80,NE,44,3.0,3.0,55,0.00,,,0.00,0,Wunderground v.1.15,2013-07-10 02:04:00,
2013-07-10 05:14:00,79.5,62.4,29.80,NE,44,1.0,3.0,56,0.00,,,0.00,0,Wunderground v.1.15,2013-07-10 02:14:00,
2013-07-10 05:24:00,79.4,62.3,29.80,NE,44,1.0,1.0,56,0.00,,,0.00,0,Wunderground v.1.15,2013-07-10 02:24:00,
2013-07-10 05:34:00,79.4,61.8,29.80,NE,42,1.0,1.0,55,0.00,,,0.00,0,Wunderground v.1.15,2013-07-10 02:34:00,
2013-07-10 05:44:00,79.5,61.4,29.80,NE,34,4.0,8.0,54,0.00,,,0.00,0,Wunderground v.1.15,2013-07-10 02:44:00,
2013-07-10 05:54:00,79.6,61.5,29.80,NNE,24,5.0,5.0,54,0.00,,,0.00,0,Wunderground v.1.15,2013-07-10 02:54:00,
2013-07-10 06:04:00,79.5,61.4,29.80,NNW,348,3.0,3.0,54,0.00,,,0.00,0,Wunderground v.1.15,2013-07-10 03:04:00,
2013-07-10 06:14:00,79.4,61.3,29.80,NNE,29,3.0,5.0,54,0.00,,,0.00,5,Wunderground v.1.15,2013-07-10 03:14:00,
2013-07-10 06:24:00,79.4,61.3,29.80,North,360,4.0,4.0,54,0.00,,,0.00,11,Wunderground v.1.15,2013-07-10 03:24:00,
2013-07-10 06:34:00,79.3,61.7,29.80,North,5,3.0,3.0,55,0.00,,,0.00,18,Wunderground v.1.15,2013-07-10 03:34:00,
2013-07-10 06:44:00,79.4,61.3,29.80,North,5,2.0,2.0,54,0.00,,,0.00,30,Wunderground v.1.15,2013-07-10 03:44:00,
2013-07-10 06:54:00,79.4,61.3,29.80,North,5,2.0,2.0,54,0.00,,,0.00,46,Wunderground v.1.15,2013-07-10 03:54:00,
2013-07-10 07:04:00,79.6,61.5,29.80,North,355,4.0,6.0,54,0.00,,,0.00,67,Wunderground v.1.15,2013-07-10 04:04:00,
2013-07-10 07:14:00,79.5,61.9,29.80,NNW,341,5.0,5.0,55,0.00,,,0.00,97,Wunderground v.1.15,2013-07-10 04:14:00,
2013-07-10 07:24:00,79.7,61.6,29.80,NNW,340,4.0,6.0,54,0.00,,,0.00,123,Wunderground v.1.15,2013-07-10 04:24:00,
2013-07-10 07:34:00,79.7,62.1,29.80,North,360,6.0,8.0,55,0.00,,,0.00,144,Wunderground v.1.15,2013-07-10 04:34:00,
2013-07-10 07:45:00,79.7,62.1,29.79,NNW,342,7.0,7.0,55,0.00,,,0.00,169,Wunderground v.1.15,2013-07-10 04:45:00,
2013-07-10 07:54:00,80.0,62.4,29.80,NNE,33,5.0,5.0,55,0.00,,,0.00,197,Wunderground v.1.15,2013-07-10 04:54:00,
2013-07-10 07:59:00,80.3,62.1,29.80,NNE,15,3.0,3.0,54,0.00,,,0.00,214,Wunderground v.1.15,2013-07-10 04:59:00,
2013-07-10 08:15:00,80.7,62.5,29.79,North,349,4.0,4.0,54,0.00,,,0.00,260,Wunderground v.1.15,2013-07-10 05:15:00,
2013-07-10 08:24:00,81.0,62.3,29.80,North,349,4.0,4.0,53,0.00,,,0.00,288,Wunderground v.1.15,2013-07-10 05:24:00,
2013-07-10 08:34:00,81.0,62.3,29.80,NNE,13,6.0,9.0,53,0.00,,,0.00,320,Wunderground v.1.15,2013-07-10 05:34:00,
2013-07-10 08:44:00,81.0,62.3,29.80,North,11,7.0,7.0,53,0.00,,,0.00,338,Wunderground v.1.15,2013-07-10 05:44:00,
2013-07-10 08:54:00,81.8,62.5,29.80,NNW,344,4.0,4.0,52,0.00,,,0.00,373,Wunderground v.1.15,2013-07-10 05:54:00,
2013-07-10 09:04:00,81.5,62.7,29.80,North,5,6.0,6.0,53,0.00,,,0.00,399,Wunderground v.1.15,2013-07-10 06:04:00,
2013-07-10 09:14:00,82.7,63.3,29.80,North,5,3.0,3.0,52,0.00,,,0.00,429,Wunderground v.1.15,2013-07-10 06:14:00,
2013-07-10 09:24:00,83.0,63.0,29.79,NNW,334,3.0,3.0,51,0.00,,,0.00,464,Wunderground v.1.15,2013-07-10 06:24:00,
2013-07-10 09:34:00,83.1,62.5,29.79,North,355,4.0,5.0,50,0.00,,,0.00,490,Wunderground v.1.15,2013-07-10 06:34:00,
2013-07-10 09:44:00,83.8,62.0,29.79,NNW,337,4.0,5.0,48,0.00,,,0.00,503,Wunderground v.1.15,2013-07-10 06:44:00,
2013-07-10 09:54:00,83.5,62.3,29.79,NNE,26,5.0,6.0,49,0.00,,,0.00,506,Wunderground v.1.15,2013-07-10 06:54:00,
2013-07-10 10:04:00,84.1,62.3,29.79,North,355,4.0,5.0,48,0.00,,,0.00,563,Wunderground v.1.15,2013-07-10 07:04:00,
2013-07-10 10:14:00,84.2,61.8,29.79,NNE,15,5.0,5.0,47,0.00,,,0.00,592,Wunderground v.1.15,2013-07-10 07:14:00,
2013-07-10 10:24:00,84.3,62.5,29.79,North,351,6.0,6.0,48,0.00,,,0.00,613,Wunderground v.1.15,2013-07-10 07:24:00,
2013-07-10 10:34:00,84.4,61.4,29.79,North,355,6.0,15.0,46,0.00,,,0.00,652,Wunderground v.1.15,2013-07-10 07:34:00,
2013-07-10 10:44:00,84.8,61.7,29.79,North,350,6.0,8.0,46,0.00,,,0.00,671,Wunderground v.1.15,2013-07-10 07:44:00,
2013-07-10 10:54:00,85.1,61.4,29.79,North,5,5.0,5.0,45,0.00,,,0.00,680,Wunderground v.1.15,2013-07-10 07:54:00,
2013-07-10 11:04:00,85.2,61.5,29.78,ENE,68,5.0,6.0,45,0.00,,,0.00,715,Wunderground v.1.15,2013-07-10 08:04:00,
2013-07-10 11:14:00,85.8,61.4,29.79,NW,319,5.0,5.0,44,0.00,,,0.00,744,Wunderground v.1.15,2013-07-10 08:14:00,
2013-07-10 11:24:00,86.0,61.5,29.79,North,355,4.0,4.0,44,0.00,,,0.00,740,Wunderground v.1.15,2013-07-10 08:24:00,
2013-07-10 11:34:00,86.6,61.4,29.79,North,355,5.0,6.0,43,0.00,,,0.00,770,Wunderground v.1.15,2013-07-10 08:34:00,
2013-07-10 11:44:00,86.3,61.2,29.79,NNW,334,7.0,7.0,43,0.00,,,0.00,786,Wunderground v.1.15,2013-07-10 08:44:00,
2013-07-10 11:54:00,86.2,61.1,29.78,NNW,336,6.0,6.0,43,0.00,,,0.00,800,Wunderground v.1.15,2013-07-10 08:54:00,
2013-07-10 12:04:00,86.7,61.5,29.78,NNW,335,6.0,6.0,43,0.00,,,0.00,817,Wunderground v.1.15,2013-07-10 09:04:00,
2013-07-10 12:15:00,87.2,61.3,29.78,NNE,23,5.0,5.0,42,0.00,,,0.00,837,Wunderground v.1.15,2013-07-10 09:15:00,
2013-07-10 12:24:00,87.5,61.6,29.78,NNW,339,4.0,6.0,42,0.00,,,0.00,870,Wunderground v.1.15,2013-07-10 09:24:00,
2013-07-10 12:29:00,87.6,61.7,29.78,North,355,4.0,6.0,42,0.00,,,0.00,877,Wunderground v.1.15,2013-07-10 09:29:00,
2013-07-10 12:45:00,88.6,61.9,29.78,North,5,3.0,6.0,41,0.00,,,0.00,877,Wunderground v.1.15,2013-07-10 09:45:00,
2013-07-10 12:50:00,88.9,61.5,29.78,North,355,4.0,6.0,40,0.00,,,0.00,912,Wunderground v.1.15,2013-07-10 09:50:00,
2013-07-10 13:04:00,88.1,61.4,29.78,NW,321,6.0,6.0,41,0.00,,,0.00,898,Wunderground v.1.15,2013-07-10 10:04:00,
2013-07-10 13:15:00,88.4,61.0,29.77,NNE,19,4.0,5.0,40,0.00,,,0.00,872,Wunderground v.1.15,2013-07-10 10:15:00,
2013-07-10 13:24:00,88.3,60.9,29.77,NNE,30,5.0,7.0,40,0.00,,,0.00,889,Wunderground v.1.15,2013-07-10 10:24:00,
2013-07-10 13:29:00,88.7,61.3,29.77,NNW,331,6.0,7.0,40,0.00,,,0.00,916,Wunderground v.1.15,2013-07-10 10:29:00,
2013-07-10 13:45:00,89.7,61.5,29.76,North,350,3.0,4.0,39,0.00,,,0.00,954,Wunderground v.1.15,2013-07-10 10:45:00,
2013-07-10 13:54:00,89.0,60.8,29.76,SSE,157,3.0,6.0,39,0.00,,,0.00,244,Wunderground v.1.15,2013-07-10 10:54:00,
2013-07-10 14:04:00,88.4,60.3,29.76,NNE,15,5.0,6.0,39,0.00,,,0.00,200,Wunderground v.1.15,2013-07-10 11:04:00,
2013-07-10 14:14:00,88.7,60.6,29.76,NE,50,4.0,4.0,39,0.00,,,0.00,285,Wunderground v.1.15,2013-07-10 11:14:00,
2013-07-10 14:24:00,88.7,60.6,29.75,East,99,4.0,6.0,39,0.00,,,0.00,299,Wunderground v.1.15,2013-07-10 11:24:00,
2013-07-10 14:34:00,88.4,60.3,29.75,NE,36,4.0,4.0,39,0.00,,,0.00,969,Wunderground v.1.15,2013-07-10 11:34:00,
2013-07-10 14:45:00,88.9,60.0,29.75,NE,50,4.0,4.0,38,0.00,,,0.00,285,Wunderground v.1.15,2013-07-10 11:45:00,
2013-07-10 14:54:00,88.6,59.7,29.75,NE,34,5.0,5.0,38,0.00,,,0.00,234,Wunderground v.1.15,2013-07-10 11:54:00,
2013-07-10 15:04:00,89.3,60.4,29.74,NE,38,6.0,9.0,38,0.00,,,0.00,912,Wunderground v.1.15,2013-07-10 12:04:00,
2013-07-10 15:14:00,89.3,59.6,29.74,ENE,62,6.0,6.0,37,0.00,,,0.00,872,Wunderground v.1.15,2013-07-10 12:14:00,
2013-07-10 15:24:00,90.0,59.5,29.74,NE,48,5.0,5.0,36,0.00,,,0.00,816,Wunderground v.1.15,2013-07-10 12:24:00,
2013-07-10 15:34:00,89.7,60.0,29.74,NNE,28,4.0,11.0,37,0.00,,,0.00,294,Wunderground v.1.15,2013-07-10 12:34:00,
2013-07-10 15:45:00,90.3,59.7,29.73,East,88,4.0,4.0,36,0.00,,,0.00,773,Wunderground v.1.15,2013-07-10 12:45:00,
2013-07-10 15:54:00,90.8,59.4,29.73,ENE,65,4.0,5.0,35,0.00,,,0.00,765,Wunderground v.1.15,2013-07-10 12:54:00,
2013-07-10 16:04:00,90.2,58.8,29.73,NNE,18,6.0,7.0,35,0.00,,,0.00,735,Wunderground v.1.15,2013-07-10 13:04:00,
2013-07-10 16:14:00,90.2,59.6,29.73,NNE,24,5.0,5.0,36,0.00,,,0.00,729,Wunderground v.1.15,2013-07-10 13:14:00,
2013-07-10 16:24:00,90.1,58.8,29.73,NE,44,4.0,4.0,35,0.00,,,0.00,708,Wunderground v.1.15,2013-07-10 13:24:00,
2013-07-10 16:34:00,90.7,59.3,29.72,NNE,30,4.0,9.0,35,0.00,,,0.00,679,Wunderground v.1.15,2013-07-10 13:34:00,
2013-07-10 16:44:00,90.5,58.3,29.72,ENE,76,5.0,5.0,34,0.00,,,0.00,657,Wunderground v.1.15,2013-07-10 13:44:00,
2013-07-10 16:54:00,90.6,58.4,29.72,ENE,65,5.0,10.0,34,0.00,,,0.00,629,Wunderground v.1.15,2013-07-10 13:54:00,
2013-07-10 17:05:00,90.3,58.1,29.72,ENE,59,6.0,6.0,34,0.00,,,0.00,594,Wunderground v.1.15,2013-07-10 14:05:00,
2013-07-10 17:15:00,90.9,57.8,29.72,North,10,3.0,9.0,33,0.00,,,0.00,594,Wunderground v.1.15,2013-07-10 14:15:00,
2013-07-10 18:04:00,89.2,58.0,29.72,ENE,65,3.0,3.0,35,0.00,,,0.00,98,Wunderground v.1.15,2013-07-10 15:04:00,
2013-07-10 18:14:00,89.0,57.8,29.72,NE,40,3.0,3.0,35,0.00,,,0.00,109,Wunderground v.1.15,2013-07-10 15:14:00,
2013-07-10 18:24:00,89.2,58.0,29.72,NE,40,2.0,4.0,35,0.00,,,0.00,98,Wunderground v.1.15,2013-07-10 15:24:00,
2013-07-10 18:34:00,90.0,57.9,29.72,ESE,112,2.0,4.0,34,0.00,,,0.00,350,Wunderground v.1.15,2013-07-10 15:34:00,
2013-07-10 18:44:00,89.7,58.4,29.72,ESE,107,3.0,4.0,35,0.00,,,0.00,329,Wunderground v.1.15,2013-07-10 15:44:00,
2013-07-10 18:54:00,89.3,58.1,29.72,East,101,4.0,6.0,35,0.00,,,0.00,301,Wunderground v.1.15,2013-07-10 15:54:00,
2013-07-10 19:04:00,89.2,58.0,29.72,ENE,78,4.0,4.0,35,0.00,,,0.00,297,Wunderground v.1.15,2013-07-10 16:04:00,
2013-07-10 19:14:00,89.5,56.6,29.72,NNE,19,5.0,5.0,33,0.00,,,0.00,248,Wunderground v.1.15,2013-07-10 16:14:00,
2013-07-10 19:34:00,89.3,63.9,29.73,NNE,15,1.0,1.0,43,0.00,,,0.00,160,Wunderground v.1.15,2013-07-10 16:34:00,
2013-07-10 19:45:00,87.7,65.0,29.73,NE,39,2.0,2.0,47,0.00,,,0.00,123,Wunderground v.1.15,2013-07-10 16:45:00,
2013-07-10 19:54:00,86.0,66.9,29.73,NE,39,2.0,2.0,53,0.00,,,0.00,95,Wunderground v.1.15,2013-07-10 16:54:00,
2013-07-10 20:04:00,85.2,67.2,29.74,NE,39,0.0,0.0,55,0.00,,,0.00,39,Wunderground v.1.15,2013-07-10 17:04:00,
2013-07-10 20:14:00,84.3,66.9,29.74,North,360,3.0,7.0,56,0.00,,,0.00,30,Wunderground v.1.15,2013-07-10 17:14:00,
2013-07-10 20:24:00,83.0,65.2,29.74,NW,309,5.0,5.0,55,0.00,,,0.00,25,Wunderground v.1.15,2013-07-10 17:24:00,
2013-07-10 20:34:00,82.7,66.4,29.75,NW,309,2.0,2.0,58,0.00,,,0.00,14,Wunderground v.1.15,2013-07-10 17:34:00,
2013-07-10 20:44:00,82.6,66.3,29.75,NW,309,0.0,2.0,58,0.00,,,0.00,5,Wunderground v.1.15,2013-07-10 17:44:00,
2013-07-10 20:54:00,82.0,65.3,29.75,NW,309,2.0,2.0,57,0.00,,,0.00,0,Wunderground v.1.15,2013-07-10 17:54:00,
2013-07-10 21:04:00,81.9,65.7,29.75,NW,309,1.0,3.0,58,0.00,,,0.00,0,Wunderground v.1.15,2013-07-10 18:04:00,
2013-07-10 21:14:00,82.0,64.8,29.75,NW,309,1.0,1.0,56,0.00,,,0.00,0,Wunderground v.1.15,2013-07-10 18:14:00,
2013-07-10 21:24:00,82.0,64.2,29.75,NW,309,0.0,0.0,55,0.00,,,0.00,0,Wunderground v.1.15,2013-07-10 18:24:00,
2013-07-10 21:34:00,82.4,64.6,29.75,NW,309,0.0,1.0,55,0.00,,,0.00,0,Wunderground v.1.15,2013-07-10 18:34:00,
2013-07-10 21:44:00,82.6,63.7,29.76,NW,309,0.0,0.0,53,0.00,,,0.00,0,Wunderground v.1.15,2013-07-10 18:44:00,
2013-07-10 21:54:00,83.0,58.8,29.76,NW,309,1.0,1.0,44,0.00,,,0.00,0,Wunderground v.1.15,2013-07-10 18:54:00,
2013-07-10 22:04:00,83.0,56.9,29.76,NW,309,0.0,0.0,41,0.00,,,0.00,0,Wunderground v.1.15,2013-07-10 19:04:00,
2013-07-10 22:14:00,83.4,58.6,29.76,NW,309,1.0,1.0,43,0.00,,,0.00,0,Wunderground v.1.15,2013-07-10 19:14:00,
2013-07-10 22:24:00,83.2,63.2,29.77,NW,309,0.0,0.0,51,0.00,,,0.00,0,Wunderground v.1.15,2013-07-10 19:24:00,
2013-07-10 22:34:00,82.5,64.7,29.77,NW,309,0.0,2.0,55,0.00,,,0.00,0,Wunderground v.1.15,2013-07-10 19:34:00,
2013-07-10 22:44:00,81.9,65.2,29.77,NW,309,0.0,0.0,57,0.00,,,0.00,0,Wunderground v.1.15,2013-07-10 19:44:00,
2013-07-10 22:54:00,81.5,65.3,29.77,NW,309,0.0,0.0,58,0.00,,,0.00,0,Wunderground v.1.15,2013-07-10 19:54:00,
2013-07-10 23:04:00,81.1,64.9,29.77,NW,309,0.0,0.0,58,0.00,,,0.00,0,Wunderground v.1.15,2013-07-10 20:04:00,
2013-07-10 23:14:00,81.1,64.4,29.77,NW,309,0.0,0.0,57,0.00,,,0.00,0,Wunderground v.1.15,2013-07-10 20:14:00,
2013-07-10 23:24:00,81.1,65.4,29.76,NW,309,0.0,0.0,59,0.00,,,0.00,0,Wunderground v.1.15,2013-07-10 20:24:00,
2013-07-10 23:34:00,80.9,64.2,29.76,NW,309,0.0,0.0,57,0.00,,,0.00,0,Wunderground v.1.15,2013-07-10 20:34:00,
2013-07-10 23:44:00,81.0,63.8,29.77,NW,309,0.0,0.0,56,0.00,,,0.00,0,Wunderground v.1.15,2013-07-10 20:44:00,
2013-07-10 23:54:00,81.1,65.9,29.77,NW,309,0.0,0.0,60,0.00,,,0.00,0,Wunderground v.1.15,2013-07-10 20:54:00,